{"data":{"norad_id":46685,"epoch":"2026-09-05T18:35:05.052192Z","epoch_age_seconds":1294224,"freshness":"OLD","line1":"1 46685U 20073R   26248.77436403  .10054222  12452-4  64189-3 0  9992","line2":"2 46685  53.0210  64.4299 0009309 294.3921  65.6154 16.40894780325506","mean_motion":16.4089478,"eccentricity":0.0009309,"inclination_deg":53.021,"raan_deg":64.4299,"arg_perigee_deg":294.3921,"mean_anomaly_deg":65.6154,"bstar":0.00064189,"rev_number":32550,"period_min":87.756998044689,"perigee_km":157.33381109541,"apogee_km":169.51288815434,"semimajor_km":6541.5603496249,"source":"CELESTRAK","updated_at":"2026-09-06T09:00:33.642770Z"}}